Location: Richmond
(37.5536°N, 77.4606°W)
Time: 17:06:25
(UTC-05:00)

ISS - Visible Passes

Search period start: 18 January 2017 00:00
Search period end: 28 January 2017 00:00
Orbit: 400 x 410 km, 51.6° (Epoch: 19 January)

Date Brightness Start Highest point End Pass type
(mag) Time Alt. Az. Time Alt. Az. Time Alt. Az.
18 Jan -1.3 05:16:04 25° ENE 05:16:04 25° ENE 05:18:11 10° E visible
18 Jan -2.1 06:48:56 10° WNW 06:51:46 27° SW 06:54:35 10° SSE visible
19 Jan -3.3 05:58:59 44° W 05:59:44 59° SW 06:02:55 10° SE visible
20 Jan -1.1 05:09:18 25° ESE 05:09:18 25° ESE 05:10:49 10° ESE visible
20 Jan -1.0 06:42:53 10° WSW 06:43:40 11° SW 06:44:26 10° SW visible
21 Jan -1.6 05:52:23 20° SSW 05:52:23 20° SSW 05:54:15 10° S visible
25 Jan -1.0 18:59:19 10° S 19:00:11 14° SSE 19:00:11 14° SSE visible
26 Jan -0.7 19:42:19 10° SW 19:43:21 19° SW 19:43:21 19° SW visible
27 Jan -3.0 18:50:14 10° SSW 18:53:22 47° SE 18:53:43 45° ESE visible
